Погода в Юркином

Россия / Ярославская область     57°25′06″N   39°04′33″E
темп.,
°C
ветер,
м/с
пор.,
м/с
влажн.,
%
обл.,
%
осадки,
мм/ч
давл.,
гПа
погр.,
м
17 апреля, сб
сб1700:00+7всв5127385 0.0 1026545
03:00+5всв5138036 0.0 1027426
06:00+4всв412805 0.0 1027399
09:00+8в5106218 0.0 1027548
12:00+12всв68495 0.0 1027934
15:00+13всв58413 0.0 10261111
18:00+12всв59430 0.0 1025970
21:00+7всв412611 0.0 1026421
18 апреля, вс
вс1800:00+6всв412720 0.0 1026408
03:00+4всв412800 0.0 1026407
06:00+3всв412810 0.0 1026434
09:00+8всв510610 0.0 1026958
12:00+11всв69445 0.0 10251567
15:00+12всв68385 0.0 10251922
18:00+11всв58519 0.0 10261586
21:00+6всв511765 0.0 1028599
19 апреля, пн
пн1900:00+4всв41183100 0.0 1029511
03:00+3в41081100 0.0 1029558
06:00+3всв41071100 0.0 1029555
09:00+4в5860100 0.0 1030738
12:00+7в5752100 0.0 10301099
15:00+8в574894 0.0 10291344
18:00+8в585196 0.0 10291581
21:00+5в51150100 0.0 1029709
20 апреля, вт
вт2000:00+3в41256100 0.0 1029572
03:00+2в4126199 0.0 1029544
06:00+1в5126499 0.0 1028549
09:00+4в6115665 0.0 1027753
12:00+8вюв61051100 0.0 10251084
15:00+11вюв7114997 0.0 10221386
18:00+10вюв71450100 0.0 10191359
21:00+7вюв71653100 0.0 10171224
21 апреля, ср
ср2100:00+4в81782100 1.9 1013980
03:00+4вюв71791100 4.1 10101167
06:00+5вюв71691100 2.1 10071064
09:00+6вюв71891100 3.3 10041272
12:00+7юв81891100 1.1 10021528
15:00+6ююв81692100 3.4 10021495
18:00+4ю71396100 0.6 10041028
21:00+4ю61396100 0.8 10071010